Location: Pardubice
(50.0330°N, 15.7830°E)
Time: 00:25:46
(UTC+01:00)

ISS - Pass Details

Date: 08 October 2020
Orbit: 417 x 420 km, 51.6° (Epoch: 30 October)

Event Time Altitude Azimuth Distance (km) Brightness Sun altitude
Rises 18:47:21 0° 284° (WNW) 2,368 1.8 -5.3°
Reaches altitude 10° 18:49:50 10° 266° (W) 1,501 1.0 -5.7°
Maximum altitude 18:52:18 19° 219° (SW) 1,066 -1.1 -6.1°
Drops below altitude 10° 18:54:46 10° 172° (S) 1,495 -1.0 -6.5°
Sets 18:57:14 0° 154° (SSE) 2,354 -0.2 -6.9°
